Regional Weather Roundup
Issued by NWS Raleigh/Durham, NC

Home | Current Version | Previous Version | Text Only | Print | Product List | Glossary On
Versions: 1 2 3 4 5 6 7 8 9 10 11 12 13 14 15 16 17 18 19 20 21 22 23 24 25 26 27
000
ASUS42 KRAH 030110
RWRRAH
NORTH CAROLINA WEATHER ROUNDUP
NATIONAL WEATHER SERVICE RALEIGH NC
900 PM EDT MON MAY 02 2016

NOTE: "FAIR" INDICATES FEW OR NO CLOUDS BELOW 12,000 FEET WITH NO
SIGNIFICANT WEATHER AND/OR OBSTRUCTIONS TO VISIBILITY.

NCZ001-053-055-056-065-067-030200-
WESTERN NORTH CAROLINA

CITY           SKY/WX    TMP DP  RH WIND       PRES   REMARKS
ASHEVILLE      LGT RAIN  65  59  81 N15G23    29.95R
JEFFERSON      LGT RAIN  56  53  90 NW9       29.98F
MORGANTON      LGT RAIN  71  66  86 NW3       29.93R
HICKORY        CLOUDY    69  66  90 VRB7      29.88R
RUTHERFORDTON  CLOUDY    74  65  71 S10G17    29.90R
MOUNT AIRY     HVY RAIN  63  61  93 N7        29.94S
BOONE          CLOUDY    58  53  84 W6        29.99S
$$

NCZ021-022-025-041-071-084-088-030200-
CENTRAL NORTH CAROLINA

CITY           SKY/WX    TMP DP  RH WIND       PRES   REMARKS
CHARLOTTE      CLOUDY    71  64  78 S8        29.91R
GREENSBORO     CLOUDY    69  66  90 S6        29.89R
WINSTON-SALEM  PTCLDY    69  65  86 CALM      29.91R
RALEIGH-DURHAM MOCLDY    69  65  86 S9        29.92R
FORT BRAGG     NOT AVBL
FAYETTEVILLE   LGT RAIN  67  64  90 S8        29.97R
BURLINGTON     CLOUDY    69  65  86 S6        29.89R
LAURINBURG     RAIN      69  66  90 SW9       29.95F FOG
$$

NCZ011-015-027-028-043-044-047-080-103-030200-
NORTHEASTERN NORTH CAROLINA

CITY           SKY/WX    TMP DP  RH WIND       PRES   REMARKS
ROCKY MT-WILSO LGT RAIN  72  65  78 S13G20    29.93R
GREENVILLE     DRIZZLE   70  68  94 SW9       29.97R
WASHINGTON     CLOUDY    66  65  94 CALM      29.96R
ELIZABETH CITY LGT RAIN  68  65  90 SW13      29.91F
MANTEO         NOT AVBL
CAPE HATTERAS  CLOUDY    71  69  93 SW10      29.98S
$$

NCZ078-087-090-091-093-098-101-030200-
SOUTHEASTERN NORTH CAROLINA

CITY           SKY/WX    TMP DP  RH WIND       PRES   REMARKS
LUMBERTON      TSTM      68  65  90 NE6       29.97S FOG
GOLDSBORO      NOT AVBL
KINSTON        CLOUDY   N/A N/A N/A SW6       29.98R
KENANSVILLE    LGT RAIN  69  66  89 CALM      30.01R
NEW BERN       CLOUDY    73  67  81 SW8       29.98R
CHERRY POINT   CLOUDY    73  67  81 S9        29.98R
BEAUFORT       CLOUDY    71  69  93 S10       29.98S
JACKSONVILLE   CLOUDY    73  68  84 S8        29.98R
WILMINGTON     MOCLDY    74  68  81 S8        29.99R
$$





USA.gov is the U.S. government's official web portal to all federal, state and local government web resources and services.